Location: Copeville
(33.0796°N, 96.4155°W)
Time: 06:18:56
(UTC+00:00)

Cosmos 1328 Rocket - Pass Details

Date: 05 July 2022
Orbit: 600 x 627 km, 82.5° (Epoch: 14 August)

Event Time Altitude Azimuth Distance (km) Brightness Sun altitude
Rises 08:55:43 0° 348° (NNW) 2,896 7.6 -24.3°
Reaches altitude 10° 08:58:00 10° 344° (NNW) 1,982 6.6 -24.0°
Enters shadow 09:01:40 50° 300° (WNW) 783 3.9 -23.5°
